GW5624 Weather Reports


time (UTC)temp
F
wind
direction
speed
knots
gust
knots
rain 1hr
in
rain 24hr
in
rain mn
in
humidity
%
barometer
mb
20260504033029 42 130 0.0 0.0 0.00 0.00 0.00 75 1014.9
20260504031514 42 130 0.0 1.7 0.00 0.00 0.00 77 1014.9
20260504030019 41 133 0.0 0.0 0.00 0.00 0.00 74 1015.1
20260504024523 41 133 0.0 0.9 0.00 0.00 0.00 72 1015.1
20260504023027 42 133 0.0 1.7 0.00 0.00 0.00 75 1015.2
20260504021532 41 252 0.0 0.9 0.00 0.00 0.00 74 1015.4
20260504020015 42 136 0.0 0.0 0.00 0.00 0.00 73 1015.2
20260504014529 44 136 0.0 0.0 0.00 0.00 0.00 70 1015.1
20260504013024 44 136 0.0 0.0 0.00 0.00 0.00 69 1015.0
20260504011528 44 134 0.0 0.9 0.00 0.00 0.00 66 1014.9
20260504010028 43 134 0.0 0.0 0.00 0.00 0.00 66 1014.8
20260504004517 44 134 0.0 0.9 0.00 0.00 0.00 69 1014.4
20260504003030 46 136 0.0 1.7 0.00 0.00 0.00 60 1014.5
20260504001524 49 235 0.0 0.9 0.00 0.00 0.00 50 1014.3
20260504000025 51 331 0.9 4.3 0.00 0.00 0.00 38 1014.3
20260503234528 53 285 0.9 3.5 0.00 0.00 0.00 36 1014.4
20260503233016 56 281 1.7 3.5 0.00 0.00 0.00 33 1014.4
20260503231523 57 297 3.5 7.0 0.00 0.00 0.00 31 1014.4
20260503230024 57 285 2.6 8.7 0.00 0.00 0.00 33 1014.5
20260503224524 58 290 3.5 7.0 0.00 0.00 0.00 31 1014.7
20260503223028 58 272 2.6 8.7 0.00 0.00 0.00 30 1014.5
20260503221516 58 226 3.5 9.6 0.00 0.00 0.00 29 1014.5
20260503220026 58 231 2.6 7.0 0.00 0.00 0.00 32 1014.5
20260503214528 58 295 3.5 7.8 0.00 0.00 0.00 29 1014.5
20260503213027 58 247 2.6 7.0 0.00 0.00 0.00 32 1014.6
20260503211529 58 224 1.7 8.7 0.00 0.00 0.00 28 1014.7
20260503210020 57 283 3.5 8.7 0.00 0.00 0.00 32 1014.8
20260503204522 57 290 3.5 8.7 0.00 0.00 0.00 30 1014.8
20260503203026 56 294 4.3 8.7 0.00 0.00 0.00 34 1015.1
20260503201528 56 276 5.2 11.3 0.00 0.00 0.00 32 1015.2
20260503200030 57 202 0.9 8.7 0.00 0.00 0.00 37 1015.5
20260503194524 56 302 5.2 9.6 0.00 0.00 0.00 34 1015.5
20260503193023 56 27 3.5 8.7 0.00 0.00 0.00 34 1016.1
20260503191536 55 298 6.1 11.3 0.00 0.00 0.00 32 1016.3
20260503190028 55 32 4.3 8.7 0.00 0.00 0.00 34 1016.3
20260503184528 54 291 2.6 10.4 0.00 0.00 0.00 40 1016.4
20260503183023 54 293 4.3 8.7 0.00 0.00 0.00 36 1016.6
20260503181525 53 113 2.6 8.7 0.00 0.00 0.00 37 1016.7
20260503180042 52 286 4.3 12.2 0.00 0.00 0.00 37 1017.0
20260503174510 52 262 5.2 9.6 0.00 0.00 0.00 35 1017.3
20260503173010 52 292 2.6 13.0 0.00 0.00 0.00 40 1017.3
20260503171509 52 65 4.3 7.8 0.00 0.00 0.00 37 1017.2
20260503081518 35 319 0.9 3.5 0.00 0.00 0.00 71 1015.2
20260503071513 37 292 0.9 1.7 0.00 0.00 0.00 68 1014.8
20260503054519 37 276 0.0 2.6 0.00 0.00 0.00 70 1014.8
20260503053026 36 266 0.0 1.7 0.00 0.00 0.00 75 1014.6
20260503051525 36 284 0.0 0.9 0.00 0.00 0.00 72 1014.5
20260503050029 38 315 0.9 1.7 0.00 0.00 0.00 69 1014.5
20260503044517 38 300 0.0 0.9 0.00 0.00 0.00 67 1014.4
20260503043033 39 339 0.0 3.5 0.00 0.00 0.00 65 1014.5
20260503041526 39 285 0.9 4.3 0.00 0.00 0.00 63 1014.4
20260503040027 39 297 2.6 7.0 0.00 0.00 0.00 62 1014.2
20260503034526 39 2 0.0 1.7 0.00 0.00 0.00 65 1014.1